#timestamp,LO_Frequency,Hit,StdDev 
1514062815.5,286046999.2,N
1514062835.3,286047001.0,N
1514062855.2,286047002.1,N
1514062875.0,286046999.7,N
1514062875.9,286046999.7,N
1514062895.7,286047000.3,N
1514062915.6,286047000.4,N
1514062935.4,286046999.9,N
1514062955.3,286047001.5,N
1514062975.1,286047001.6,N
1514062976.0,286047001.6,N
1514062995.8,286047001.3,N
1514063015.7,286047004.2,N
1514063035.5,286047003.1,N
1514063055.3,286047003.2,N
1514063075.2,286047003.4,N
1514063095.0,286047003.7,N
1514063095.9,286047003.7,N
1514063115.8,286047004.3,N
1514063135.6,286047005.4,N
1514063155.4,286047004.7,N
1514063175.3,286047001.5,N
1514063195.1,286046999.7,N
1514063215.9,286046998.2,N
1514063235.7,286047000.9,N
1514063255.5,286047002.8,N
1514063275.4,286047002.0,N
1514063295.2,286047005.9,N
1514063315.1,286047007.3,Y
1514063316.0,286047007.3,P
1514063335.8,286047005.0,N
1514063355.6,286047006.0,N
1514063375.5,286047001.7,N
1514063395.3,286047002.0,N
1514063415.1,286047001.5,N
1514063435.9,286047002.7,N
1514063455.7,286047001.9,N
1514063475.6,286047003.2,N
1514063495.4,286047003.4,N
1514063515.2,286047003.7,N
1514063535.1,286047004.1,N
1514063536.0,286047004.1,N
1514063555.8,286047003.4,N
1514063575.6,286047004.3,N
1514063595.5,286047001.6,N
1514063615.3,286047001.7,N
1514063635.2,286047005.1,Y
1514063655.9,286046999.8,P
1514063675.7,286046999.0,N
1514063695.6,286046996.5,N
1514063715.4,286046995.0,N
1514063735.3,286046995.6,N
1514063755.1,286046995.5,N
1514063756.0,286046995.5,N
1514063775.8,286046997.4,N
1514063795.7,286046997.3,N
1514063815.5,286046997.2,N
1514063835.3,286046996.5,N
1514063855.2,286046995.3,N
1514063875.0,286046995.4,N
1514063875.9,286046995.4,N
1514063895.8,286046999.2,N
1514063915.6,286046997.8,N
1514063935.4,286046998.0,N
1514063955.3,286046995.6,N
1514063975.1,286046995.8,N
1514063995.8,286046999.3,N
1514064015.7,286046999.3,N
1514064035.5,286046999.3,N
1514064055.4,286046999.3,N
1514064075.2,286047000.0,N
1514064095.0,286047002.8,N
1514064095.9,286047011.9,Y
1514064115.8,286047002.5,P
1514064135.6,286047003.5,N
1514064155.5,286047003.3,N
1514064175.3,286047003.0,N
1514064195.1,286047005.5,N
1514064215.9,286047003.7,N
1514064235.7,286047003.0,N
1514064255.5,286047003.6,N
1514064275.4,286047003.2,N
1514064295.2,286047003.0,N
1514064315.1,286047001.7,N
1514064316.0,286047001.7,N
1514064335.8,286047004.6,N
1514064355.6,286047003.2,N
1514064375.5,286047002.1,N
1514064395.3,286047003.6,N
1514064415.1,286047003.8,N
1514064435.9,286047004.4,N
1514064455.7,286047002.0,N
1514064475.6,286047001.7,N
1514064495.4,286046999.9,N
1514064515.2,286047004.1,N
1514064535.1,286047003.7,N
1514064536.0,286047003.7,N
1514064555.8,286047003.3,N
1514064575.7,286047003.2,N
1514064595.5,286047002.8,N
1514064615.3,286047002.7,N
1514064635.2,286047000.9,N
1514064655.9,286047001.0,N
1514064675.7,286047002.0,N
1514064695.6,286047002.1,N
1514064715.4,286047002.0,N
1514064735.3,286047002.2,N
1514064755.1,286047000.1,N
1514064756.0,286047000.1,N
1514064775.8,286047002.8,N
1514064795.7,286047001.5,N
1514064815.5,286047003.6,N
1514064835.3,286047001.3,N
1514064855.2,286047002.4,N
1514064875.0,286046999.8,N
1514064875.9,286046999.8,N
1514064895.8,286046998.2,N
1514064915.6,286046998.2,N
1514064935.4,286047001.8,N
1514064955.3,286047002.1,N
1514064975.1,286047002.7,N
1514064995.9,286046998.8,N
1514065015.7,286046998.9,N
1514065035.5,286046999.5,N
1514065055.4,286046999.2,N
1514065075.2,286046998.3,N
1514065095.0,286047000.2,N
1514065095.9,286047000.2,N
1514065115.8,286047001.8,N
1514065135.6,286047004.0,N
1514065155.5,286047002.6,N
1514065175.3,286047000.1,N
1514065195.1,286046999.4,N
1514065215.9,286046997.1,N
1514065235.7,286046996.5,N
1514065255.5,286046999.5,N
1514065275.4,286046997.7,N
1514065295.2,286046995.5,N
1514065315.1,286046996.0,N
1514065316.0,286046996.0,N
1514065335.8,286046996.5,N
1514065355.6,286046996.9,N
1514065375.5,286046998.0,N
1514065395.3,286046997.0,N
1514065415.2,286046995.4,N
1514065435.9,286046995.2,N
1514065455.7,286046997.5,N
1514065475.6,286046998.2,N
1514065495.4,286046999.9,N
1514065515.2,286047000.2,N
1514065535.1,286047004.2,N
1514065536.0,286047004.2,N
1514065555.8,286047001.7,N
1514065575.7,286047002.8,N
1514065595.5,286047001.1,N
1514065615.3,286046998.8,N
1514065635.2,286046999.5,N
1514065655.0,286046996.5,N
1514065655.9,286046996.5,N
1514065675.8,286046995.2,N
1514065695.6,286046996.9,N
1514065715.4,286046999.0,N
1514065735.3,286047002.7,N
1514065755.1,286047000.2,N
1514065775.8,286047002.3,N
1514065795.7,286047000.0,N
1514065815.5,286047000.2,N
1514065835.4,286046998.1,N
1514065855.2,286046999.8,N
1514065875.0,286047002.4,N
1514065875.9,286047002.4,N
1514065895.8,286047004.0,N
1514065915.6,286047002.5,N
1514065935.4,286047002.6,N
1514065955.3,286047000.9,N
1514065975.1,286047002.5,N
1514065995.9,286047001.9,N
1514066015.7,286047002.4,N
1514066035.5,286047001.4,N
1514066055.4,286047002.7,N
1514066075.2,286046998.5,N
1514066095.0,286046997.8,N
1514066096.0,286046997.8,N
1514066115.8,286046996.7,N
1514066135.6,286046996.7,N
1514066155.5,286046998.8,N
1514066175.3,286046999.0,N
1514066195.1,286047001.0,N
1514066215.9,286046999.7,N
1514066235.7,286047002.5,N
1514066255.6,286047001.8,N
1514066275.4,286047001.8,N
1514066295.2,286047001.4,N
1514066315.1,286047003.5,N
1514066316.0,286047003.5,N
1514066335.8,286047005.9,N
1514066355.6,286047003.7,N
1514066375.5,286047001.8,N
1514066395.3,286047000.7,N
